Location: Kelowna
(49.9000°N, 119.4830°W)
Time: 02:23:41
(UTC-08:00)

Envisat - Visible Passes

Search period start: 19 February 2019 00:00
Search period end: 01 March 2019 00:00
Orbit: 764 x 766 km, 98.2° (Epoch: 19 February)

Date Brightness Start Highest point End Pass type
(mag) Time Alt. Az. Time Alt. Az. Time Alt. Az.
19 Feb 3.0 18:12:25 10° SSE 18:17:27 69° ENE 18:22:32 10° N visible
19 Feb 5.7 19:53:27 10° SW 19:57:00 19° W 20:00:34 10° NW visible
20 Feb 6.1 06:17:47 10° NE 06:21:07 17° E 06:24:26 10° SE visible
20 Feb 4.6 19:15:12 10° SSW 19:19:53 37° W 19:24:36 10° NNW visible
21 Feb 3.2 18:37:54 10° S 18:42:59 74° WSW 18:48:06 10° NNW visible
21 Feb 6.2 20:21:23 10° WSW 20:22:55 11° W 20:24:26 10° WNW visible
22 Feb 3.1 18:01:19 10° SSE 18:06:16 56° ENE 18:11:16 10° N visible
22 Feb 5.4 19:41:39 10° SW 19:45:39 23° W 19:49:41 10° NW visible
23 Feb 6.3 06:07:07 10° NE 06:09:45 14° E 06:12:22 10° ESE visible
23 Feb 4.2 19:03:45 10° S 19:08:36 45° W 19:13:30 10° NNW visible
24 Feb 3.0 18:26:40 10° SSE 18:31:46 90° NW 18:36:53 10° NNW visible
24 Feb 6.0 20:08:53 10° WSW 20:11:31 14° W 20:14:11 10° NW visible
25 Feb 5.1 19:30:00 10° SSW 19:34:20 28° W 19:38:42 10° NW visible
26 Feb 6.6 05:56:55 10° ENE 05:58:22 11° E 05:59:49 10° E visible
26 Feb 3.8 18:52:22 10° S 18:57:21 56° W 19:02:22 10° NNW visible
27 Feb 3.0 18:15:30 10° SSE 18:20:33 75° ENE 18:25:40 10° N visible
27 Feb 5.8 19:56:49 10° SW 20:00:10 17° W 20:03:31 10° NW visible
28 Feb 4.7 19:18:26 10° SSW 19:23:02 34° W 19:27:40 10° NNW visible
